| time (UTC) | temp C | wind direction | speed KPH | gust KPH | rain 1hr cm | rain 24hr cm | rain mn cm | humidity % | barometer mb |
| 20260504204542 | 26 | 344 | 11.3 | 0.0 | 0.00 | 0.00 | 0.00 | 34 | 1002.1 |
| 20260504203007 | 26 | 342 | 8.0 | 0.0 | 0.00 | 0.00 | 0.00 | 34 | 1002.1 |
| 20260504201515 | 27 | 323 | 9.7 | 0.0 | 0.00 | 0.00 | 0.00 | 34 | 1002.2 |
| 20260504200044 | 27 | 331 | 9.7 | 0.0 | 0.00 | 0.00 | 0.00 | 34 | 1002.2 |
| 20260504194521 | 27 | 292 | 9.7 | 0.0 | 0.00 | 0.00 | 0.00 | 31 | 1002.1 |
| 20260504193019 | 28 | 268 | 8.0 | 0.0 | 0.00 | 0.00 | 0.00 | 30 | 1001.9 |
| 20260504191518 | 28 | 360 | 8.0 | 0.0 | 0.00 | 0.00 | 0.00 | 30 | 1001.9 |
| 20260504190029 | 28 | 258 | 9.7 | 0.0 | 0.00 | 0.00 | 0.00 | 29 | 1001.8 |
| 20260504184610 | 28 | 254 | 11.3 | 0.0 | 0.00 | 0.00 | 0.00 | 29 | 1001.8 |
| 20260504183009 | 28 | 248 | 8.0 | 0.0 | 0.00 | 0.00 | 0.00 | 29 | 1001.7 |
| 20260504181509 | 27 | 259 | 9.7 | 0.0 | 0.00 | 0.00 | 0.00 | 26 | 1001.9 |
| 20260504180020 | 27 | 276 | 9.7 | 0.0 | 0.00 | 0.00 | 0.00 | 25 | 1001.9 |
| 20260504174524 | 27 | 265 | 12.9 | 0.0 | 0.00 | 0.00 | 0.00 | 26 | 1002.1 |
| 20260504173038 | 27 | 262 | 9.7 | 0.0 | 0.00 | 0.00 | 0.00 | 29 | 1002.0 |
| 20260504171601 | 27 | 235 | 9.7 | 0.0 | 0.00 | 0.00 | 0.00 | 30 | 1002.0 |
| 20260504081506 | 11 | 360 | 9.7 | 0.0 | 0.00 | 0.00 | 0.00 | 61 | 1003.3 |
| 20260504050004 | 13 | 104 | 11.3 | 0.0 | 0.00 | 0.00 | 0.00 | 55 | 1006.4 |
| 20260504044515 | 13 | 107 | 11.3 | 0.0 | 0.00 | 0.00 | 0.00 | 56 | 1006.4 |
| 20260504043043 | 13 | 101 | 11.3 | 0.0 | 0.00 | 0.00 | 0.00 | 56 | 1006.4 |
| 20260504041502 | 13 | 106 | 11.3 | 0.0 | 0.00 | 0.00 | 0.00 | 56 | 1006.9 |
| 20260504040115 | 13 | 101 | 9.7 | 0.0 | 0.00 | 0.00 | 0.00 | 55 | 1007.1 |
| 20260504034522 | 15 | 102 | 9.7 | 0.0 | 0.00 | 0.00 | 0.00 | 53 | 1007.3 |
| 20260504033059 | 15 | 88 | 6.4 | 0.0 | 0.00 | 0.00 | 0.00 | 52 | 1007.7 |
| 20260504031519 | 15 | 104 | 6.4 | 0.0 | 0.00 | 0.00 | 0.00 | 51 | 1007.8 |
| 20260504030112 | 15 | 82 | 6.4 | 0.0 | 0.00 | 0.00 | 0.00 | 49 | 1007.7 |
| 20260504024542 | 16 | 67 | 4.8 | 0.0 | 0.00 | 0.00 | 0.00 | 49 | 1007.6 |
| 20260504023108 | 16 | 72 | 8.0 | 0.0 | 0.00 | 0.00 | 0.00 | 47 | 1007.6 |
| 20260504021530 | 17 | 38 | 6.4 | 0.0 | 0.00 | 0.00 | 0.00 | 45 | 1007.8 |
| 20260504020125 | 17 | 38 | 6.4 | 0.0 | 0.00 | 0.00 | 0.00 | 44 | 1007.9 |
| 20260504014539 | 18 | 41 | 6.4 | 0.0 | 0.00 | 0.00 | 0.00 | 43 | 1007.9 |
| 20260504013037 | 18 | 40 | 1.6 | 0.0 | 0.00 | 0.00 | 0.00 | 42 | 1007.9 |
| 20260504011605 | 18 | 43 | 1.6 | 0.0 | 0.00 | 0.00 | 0.00 | 41 | 1007.8 |
| 20260504010023 | 20 | 109 | 0.0 | 0.0 | 0.00 | 0.00 | 0.00 | 39 | 1007.9 |
| 20260504004604 | 20 | 9 | 0.0 | 0.0 | 0.00 | 0.00 | 0.00 | 38 | 1007.9 |
| 20260504003040 | 21 | 355 | 0.0 | 0.0 | 0.00 | 0.00 | 0.00 | 36 | 1008.0 |
| 20260504001605 | 22 | 355 | 1.6 | 0.0 | 0.00 | 0.00 | 0.00 | 37 | 1008.2 |
| 20260504000031 | 23 | 355 | 1.6 | 0.0 | 0.00 | 0.00 | 0.00 | 35 | 1008.3 |
| 20260503234507 | 23 | 351 | 1.6 | 0.0 | 0.00 | 0.00 | 0.00 | 33 | 1008.6 |
| 20260503233054 | 23 | 5 | 3.2 | 0.0 | 0.00 | 0.00 | 0.00 | 29 | 1008.9 |
| 20260503231541 | 24 | 36 | 1.6 | 0.0 | 0.00 | 0.00 | 0.00 | 32 | 1008.8 |
| 20260503230019 | 23 | 36 | 1.6 | 0.0 | 0.00 | 0.00 | 0.00 | 32 | 1008.8 |
| 20260503224505 | 24 | 9 | 4.8 | 0.0 | 0.00 | 0.00 | 0.00 | 29 | 1009.0 |
| 20260503223040 | 25 | 336 | 1.6 | 0.0 | 0.00 | 0.00 | 0.00 | 30 | 1008.9 |
| 20260503221529 | 24 | 336 | 3.2 | 0.0 | 0.00 | 0.00 | 0.00 | 31 | 1009.1 |
| 20260503220007 | 23 | 117 | 4.8 | 0.0 | 0.00 | 0.00 | 0.00 | 30 | 1009.2 |
| 20260503214545 | 23 | 103 | 3.2 | 0.0 | 0.00 | 0.00 | 0.00 | 31 | 1009.2 |
| 20260503213019 | 24 | 60 | 6.4 | 0.0 | 0.00 | 0.00 | 0.00 | 29 | 1009.6 |
| 20260503211601 | 25 | 327 | 3.2 | 0.0 | 0.00 | 0.00 | 0.00 | 32 | 1009.8 |
| 20260503210019 | 25 | 355 | 4.8 | 0.0 | 0.00 | 0.00 | 0.00 | 36 | 1010.0 |